Location: Brunembert
(50.7122°N, 1.8935°E)
Time: 03:08:57
(UTC+00:00)

SL-16 R/B - Pass Details

Date: 22 April 2021
Orbit: 840 x 849 km, 71.0° (Epoch: 06 May)

Event Time Altitude Azimuth Distance (km) Brightness Sun altitude
Rises 21:14:16 0° 328° (NNW) 3,424 7.0 -18.2°
Reaches altitude 10° 21:16:46 10° 324° (NW) 2,484 5.9 -18.4°
Maximum altitude 21:22:19 56° 248° (WSW) 1,008 2.6 -19.0°
Enters shadow 21:25:19 27° 182° (S) 1,585 3.2 -19.3°
